Location: Balaclava NSW 2575, Australia
(34.4510°S, 150.4953°E)
Time: 17:56:56
(UTC+10:00)

ISS - Visible Passes

Search period start: 11 August 2020 00:00
Search period end: 21 August 2020 00:00
Orbit: 418 x 420 km, 51.6° (Epoch: 11 August)

Date Brightness Start Highest point End Pass type
(mag) Time Alt. Az. Time Alt. Az. Time Alt. Az.
11 Aug -1.0 04:29:54 17° SE 04:29:54 17° SE 04:31:35 10° ESE visible
11 Aug -3.2 06:02:53 11° WSW 06:06:02 44° NW 06:09:17 10° NNE visible
12 Aug -3.8 05:17:40 47° SW 05:18:33 87° NW 05:21:57 10° NE visible
13 Aug -1.6 04:32:33 26° ENE 04:32:33 26° ENE 04:34:18 10° ENE visible
13 Aug -1.6 06:05:51 10° W 06:07:27 13° NW 06:09:02 10° NNW visible
14 Aug -2.2 05:20:32 22° NW 05:20:32 22° NW 05:22:48 10° N visible
15 Aug -0.8 04:35:37 11° NNE 04:35:37 11° NNE 04:35:50 10° NNE visible
16 Aug -1.6 18:46:35 10° N 18:47:49 15° NNE 18:47:49 15° NNE visible
17 Aug -1.4 19:34:31 10° NW 19:35:57 23° WNW 19:35:57 23° WNW visible
18 Aug -3.8 18:46:56 10° NW 18:50:17 64° NE 18:50:58 49° E visible
19 Aug -2.8 17:59:41 10° NNW 18:02:45 32° NE 18:05:51 10° ESE visible
19 Aug -1.3 19:36:48 10° W 19:38:52 21° SW 19:38:52 21° SW visible
20 Aug -2.4 18:48:39 10° WNW 18:51:50 36° SW 18:53:40 20° SSE visible
